Location: Unspecified
(0.0000°N, 0.0000°E)
Time: 05:34:22
(UTC+00:00)

RS-6 - Pass Details

Date: 02 October 2022
Orbit: 1636 x 1664 km, 83.0° (Epoch: 27 November)

Event Time Altitude Azimuth Distance (km) Brightness Sun altitude
Rises 03:33:13 0° 168° (SSE) 4,897 ? -34.0°
Reaches altitude 10° 03:36:27 10° 161° (SSE) 3,904 ? -33.2°
Maximum altitude 03:45:17 43° 92° (E) 2,174 ? -31.0°
Drops below altitude 10° 03:54:01 10° 24° (NNE) 3,874 ? -28.8°
Sets 03:57:10 0° 18° (NNE) 4,856 ? -28.0°
